Location: LewisvilleTX
(33.0462°N, 96.9942°W)
Time: 21:40:46
(UTC+00:00)

N. Korean satellite - Pass Details

Date: 08 December 2021
Orbit: 447 x 490 km, 97.3° (Epoch: 27 January)

Event Time Altitude Azimuth Distance (km) Brightness Sun altitude
Rises 10:50:33 0° 32° (NNE) 2,450 10.4 -30.3°
Reaches altitude 10° 10:53:08 10° 53° (NE) 1,575 9.6 -29.8°
Maximum altitude 10:55:23 17° 95° (E) 1,221 9.4 -29.3°
Drops below altitude 10° 10:57:38 10° 138° (SE) 1,574 9.8 -28.9°
Sets 11:00:12 0° 159° (SSE) 2,447 10.5 -28.3°
